Location: Igri�s
(42.2144°N, 0.4320°W)
Time: 17:54:35
(UTC+00:00)

SJ-6B - Pass Details

Date: 13 August 2020
Orbit: 509 x 582 km, 97.6° (Epoch: 18 September)

Event Time Altitude Azimuth Distance (km) Brightness Sun altitude
Rises 19:30:01 0° 155° (SSE) 2,766 5.9 -5.1°
Reaches altitude 10° 19:32:12 10° 151° (SSE) 1,864 5.0 -5.5°
Maximum altitude 19:36:08 54° 74° (ENE) 685 3.1 -6.2°
Drops below altitude 10° 19:40:01 10° 357° (N) 1,839 5.9 -6.8°
Sets 19:42:10 0° 353° (N) 2,725 6.9 -7.2°
